CXA542 LDSP-LQSA

Flight info

Callsign CXA542
Flight time 1h 11m
Altitude 7500
Route SPL DCT MSR
Aircraft P28S/L-SFG/C

Departure

Time 2026-04-27 00:18
Airport Split Saint Jerome Airport (LDSP)

Arrival

Time 2026-04-27 01:29
Airport Sarajevo International Airport (LQSA)
Time Latitude Longitude Altitude Speed Heading
2026-04-26 23:36 43.52566 16.28766 17 ft 0 kts
2026-04-26 23:51 43.52570 16.28774 22 ft 1 kts 37°
2026-04-26 23:52 43.52572 16.28796 29 ft 0 kts 107°
2026-04-26 23:52 43.52576 16.28812 25 ft 5 kts 102°
2026-04-26 23:52 43.52583 16.28878 54 ft 12 kts 96°
2026-04-26 23:52 43.52643 16.28977 29 ft 10 kts 28°
2026-04-26 23:53 43.52728 16.29059 88 ft 22 kts 36°
2026-04-26 23:53 43.52883 16.29235 189 ft 35 kts 22°
2026-04-26 23:53 43.53110 16.29443 231 ft 39 kts 23°
2026-04-26 23:53 43.53303 16.29622 217 ft 26 kts 20°
2026-04-26 23:54 43.53436 16.29704 111 ft 17 kts 326°
2026-04-26 23:54 43.53533 16.29670 96 ft 14 kts 335°
2026-04-26 23:54 43.53593 16.29675 74 ft 2 kts 33°
2026-04-26 23:54 43.53607 16.29690 72 ft 3 kts 37°
2026-04-26 23:55 43.53619 16.29704 70 ft 2 kts 41°
2026-04-26 23:55 43.53620 16.29705 70 ft 0 kts 32°
2026-04-27 00:05 43.53620 16.29706 81 ft 1 kts 31°
2026-04-27 00:05 43.53623 16.29711 90 ft 1 kts 28°
2026-04-27 00:05 43.53628 16.29714 90 ft 1 kts 25°
2026-04-27 00:05 43.53634 16.29719 90 ft 0 kts 27°
2026-04-27 00:06 43.53651 16.29732 131 ft 6 kts 30°
2026-04-27 00:06 43.53673 16.29783 165 ft 9 kts 49°
2026-04-27 00:06 43.53697 16.29869 164 ft 8 kts 45°
2026-04-27 00:06 43.53722 16.29913 102 ft 5 kts 43°
2026-04-27 00:07 43.53734 16.29862 209 ft 25 kts 216°
2026-04-27 00:07 43.53433 16.29638 280 ft 65 kts 202°
2026-04-27 00:07 43.53039 16.29163 318 ft 92 kts 234°
2026-04-27 00:07 43.52742 16.28310 269 ft 98 kts 244°
2026-04-27 00:08 43.52508 16.27453 267 ft 97 kts 241°
2026-04-27 00:08 43.52252 16.26635 265 ft 90 kts 240°
2026-04-27 00:08 43.52039 16.25925 243 ft 70 kts 239°
2026-04-27 00:08 43.51885 16.25377 199 ft 44 kts 236°
2026-04-27 00:09 43.51793 16.25129 107 ft 15 kts 223°
2026-04-27 00:09 43.51727 16.25055 128 ft 24 kts 213°
2026-04-27 00:09 43.51608 16.24897 102 ft 15 kts 225°
2026-04-27 00:09 43.51589 16.24731 101 ft 25 kts 272°
2026-04-27 00:10 43.51575 16.24578 104 ft 15 kts 153°
2026-04-27 00:10 43.51529 16.24675 88 ft 8 kts 118°
2026-04-27 00:10 43.51513 16.24992 121 ft 55 kts 90°
2026-04-27 00:10 43.51572 16.25641 159 ft 77 kts 88°
2026-04-27 00:11 43.51600 16.26362 262 ft 71 kts 100°
2026-04-27 00:11 43.51514 16.27048 249 ft 71 kts 107°
2026-04-27 00:11 43.51408 16.27678 294 ft 70 kts 111°
2026-04-27 00:11 43.51325 16.28369 352 ft 76 kts 103°
2026-04-27 00:12 43.51253 16.29118 390 ft 80 kts 107°
2026-04-27 00:12 43.51127 16.29890 425 ft 87 kts 107°
2026-04-27 00:12 43.50945 16.30747 425 ft 101 kts 114°
2026-04-27 00:12 43.50640 16.31582 420 ft 96 kts 128°
2026-04-27 00:13 43.50320 16.32412 412 ft 102 kts 123°
2026-04-27 00:13 43.49998 16.33269 323 ft 100 kts 124°
2026-04-27 00:13 43.49693 16.34106 302 ft 103 kts 110°
2026-04-27 00:13 43.49718 16.35155 191 ft 113 kts 82°
2026-04-27 00:14 43.49834 16.36197 222 ft 109 kts 80°
2026-04-27 00:14 43.49984 16.37197 261 ft 108 kts 79°
2026-04-27 00:14 43.50131 16.38218 241 ft 108 kts 77°
2026-04-27 00:14 43.50340 16.39196 321 ft 102 kts 69°
2026-04-27 00:15 43.50541 16.40120 433 ft 94 kts 73°
2026-04-27 00:15 43.50572 16.40993 527 ft 96 kts 96°
2026-04-27 00:15 43.50446 16.41940 423 ft 103 kts 105°
2026-04-27 00:15 43.50432 16.42928 441 ft 105 kts 82°
2026-04-27 00:16 43.50698 16.43851 417 ft 102 kts 50°
2026-04-27 00:16 43.51176 16.44478 434 ft 89 kts 27°
2026-04-27 00:16 43.51743 16.44748 449 ft 89 kts
2026-04-27 00:16 43.52323 16.45052 503 ft 91 kts 50°
2026-04-27 00:17 43.52491 16.45871 496 ft 93 kts 96°
2026-04-27 00:17 43.52265 16.46676 553 ft 89 kts 123°
2026-04-27 00:17 43.51899 16.47363 546 ft 87 kts 128°
2026-04-27 00:17 43.51609 16.48047 516 ft 78 kts 124°
2026-04-27 00:18 43.51413 16.48769 506 ft 94 kts 117°
2026-04-27 00:18 43.51206 16.49662 660 ft 101 kts 108°
2026-04-27 00:18 43.51133 16.50673 696 ft 109 kts 97°
2026-04-27 00:18 43.51033 16.51686 816 ft 106 kts 101°
2026-04-27 00:19 43.50945 16.52676 1070 ft 103 kts 100°
2026-04-27 00:19 43.50822 16.53623 1263 ft 103 kts 102°
2026-04-27 00:19 43.50750 16.54588 1456 ft 103 kts 98°
2026-04-27 00:19 43.50730 16.55596 1611 ft 106 kts 94°
2026-04-27 00:20 43.50646 16.56608 1814 ft 102 kts 96°
2026-04-27 00:20 43.50534 16.57617 1901 ft 112 kts 99°
2026-04-27 00:20 43.50430 16.58714 1949 ft 120 kts 95°
2026-04-27 00:20 43.50384 16.59801 2018 ft 107 kts 92°
2026-04-27 00:21 43.50353 16.60779 2276 ft 94 kts 96°
2026-04-27 00:21 43.50290 16.61249 2359 ft 10 kts 72°
2026-04-27 00:21 43.50323 16.61358 2354 ft 4 kts
2026-04-27 00:21 43.50327 16.61379 2303 ft 6 kts 16°
2026-04-27 00:22 43.50344 16.61395 2302 ft 2 kts
2026-04-27 00:22 43.50278 16.61484 2359 ft 45 kts 150°
2026-04-27 00:22 43.49778 16.61671 2223 ft 94 kts 189°
2026-04-27 00:22 43.49331 16.61000 1894 ft 102 kts 261°
2026-04-27 00:23 43.49534 16.60235 1798 ft 50 kts 248°
2026-04-27 00:23 43.49602 16.60080 1773 ft 8 kts 198°
2026-04-27 00:23 43.49460 16.60056 1698 ft 15 kts 179°
2026-04-27 00:23 43.49181 16.60086 1413 ft 82 kts 167°
2026-04-27 00:24 43.48605 16.60443 1423 ft 104 kts 141°
2026-04-27 00:24 43.48036 16.61143 1504 ft 106 kts 139°
2026-04-27 00:24 43.47533 16.61898 1508 ft 109 kts 127°
2026-04-27 00:24 43.47100 16.62768 1520 ft 108 kts 128°
2026-04-27 00:25 43.46650 16.63516 1663 ft 94 kts 137°
2026-04-27 00:25 43.46185 16.64158 1785 ft 97 kts 123°
2026-04-27 00:25 43.45768 16.64807 1957 ft 81 kts 117°
2026-04-27 00:25 43.45483 16.65412 2033 ft 73 kts 105°
2026-04-27 00:26 43.45245 16.66061 1954 ft 71 kts 121°
2026-04-27 00:26 43.44816 16.66363 1672 ft 74 kts 145°
2026-04-27 00:26 43.44412 16.66847 1390 ft 81 kts 105°
2026-04-27 00:26 43.44177 16.67516 1042 ft 77 kts 89°
2026-04-27 00:27 43.44062 16.68272 597 ft 86 kts 58°
2026-04-27 00:27 43.44225 16.68938 314 ft 63 kts 89°
2026-04-27 00:27 43.43971 16.69500 182 ft 91 kts 138°
2026-04-27 00:27 43.43454 16.70001 341 ft 80 kts 155°
2026-04-27 00:28 43.42884 16.70410 332 ft 106 kts 151°
2026-04-27 00:28 43.42226 16.70903 434 ft 113 kts 146°
2026-04-27 00:28 43.41694 16.71718 455 ft 121 kts 118°
2026-04-27 00:28 43.41327 16.72780 431 ft 128 kts 114°
2026-04-27 00:29 43.40992 16.73925 368 ft 130 kts 109°
2026-04-27 00:29 43.40737 16.75083 449 ft 120 kts 108°
2026-04-27 00:29 43.40544 16.76176 582 ft 118 kts 105°
2026-04-27 00:29 43.40389 16.77306 615 ft 118 kts 103°
2026-04-27 00:30 43.40206 16.78392 689 ft 119 kts 99°
2026-04-27 00:30 43.40096 16.79518 667 ft 121 kts 100°
2026-04-27 00:30 43.39985 16.80661 731 ft 124 kts 94°
2026-04-27 00:30 43.39885 16.81911 595 ft 134 kts 99°
2026-04-27 00:31 43.39739 16.83200 528 ft 135 kts 99°
2026-04-27 00:31 43.39648 16.84434 578 ft 127 kts 92°
2026-04-27 00:31 43.39590 16.85675 606 ft 129 kts 95°
2026-04-27 00:31 43.39544 16.86923 612 ft 124 kts 101°
2026-04-27 00:32 43.39331 16.88040 627 ft 119 kts 110°
2026-04-27 00:32 43.38998 16.89029 819 ft 114 kts 119°
2026-04-27 00:32 43.38593 16.89948 1205 ft 114 kts 123°
2026-04-27 00:32 43.38336 16.90945 1824 ft 111 kts 108°
2026-04-27 00:33 43.38211 16.92002 2276 ft 112 kts 101°
2026-04-27 00:33 43.38111 16.93078 2799 ft 113 kts 102°
2026-04-27 00:33 43.37949 16.94129 3293 ft 110 kts 105°
2026-04-27 00:33 43.37916 16.95049 3933 ft 82 kts 92°
2026-04-27 00:34 43.37961 16.95823 4525 ft 80 kts 87°
2026-04-27 00:34 43.37988 16.96370 4948 ft 28 kts 73°
2026-04-27 00:34 43.38013 16.96554 5072 ft 21 kts 72°
2026-04-27 00:34 43.38032 16.96733 5176 ft 17 kts 76°
2026-04-27 00:35 43.38021 16.96950 5217 ft 29 kts 81°
2026-04-27 00:35 43.37930 16.97391 5290 ft 67 kts 104°
2026-04-27 00:35 43.37669 16.98048 5220 ft 88 kts 123°
2026-04-27 00:35 43.37263 16.98760 5242 ft 99 kts 131°
2026-04-27 00:36 43.36822 16.99483 5372 ft 97 kts 128°
2026-04-27 00:36 43.36365 17.00180 5569 ft 101 kts 132°
2026-04-27 00:36 43.35825 17.00895 5661 ft 116 kts 132°
2026-04-27 00:36 43.35292 17.01766 5666 ft 122 kts 124°
2026-04-27 00:37 43.34825 17.02699 5764 ft 116 kts 115°
2026-04-27 00:37 43.34493 17.03636 5886 ft 99 kts 103°
2026-04-27 00:37 43.34233 17.04418 5973 ft 74 kts 99°
2026-04-27 00:37 43.34148 17.05066 5952 ft 74 kts 92°
2026-04-27 00:38 43.33908 17.05687 5823 ft 78 kts 127°
2026-04-27 00:38 43.33513 17.06440 5635 ft 107 kts 125°
2026-04-27 00:38 43.33000 17.07306 5528 ft 126 kts 128°
2026-04-27 00:38 43.32358 17.08183 5291 ft 132 kts 138°
2026-04-27 00:39 43.31600 17.08875 5232 ft 131 kts 144°
2026-04-27 00:39 43.30840 17.09507 5290 ft 124 kts 143°
2026-04-27 00:39 43.30113 17.10187 5238 ft 126 kts 141°
2026-04-27 00:39 43.29383 17.10752 5351 ft 121 kts 147°
2026-04-27 00:40 43.28666 17.11316 5490 ft 118 kts 143°
2026-04-27 00:40 43.27991 17.12037 5415 ft 128 kts 135°
2026-04-27 00:40 43.27308 17.12840 5400 ft 121 kts 140°
2026-04-27 00:40 43.26917 17.13856 5230 ft 128 kts 93°
2026-04-27 00:41 43.26774 17.15044 5152 ft 126 kts 98°
2026-04-27 00:41 43.26655 17.16322 4735 ft 143 kts 88°
2026-04-27 00:41 43.26592 17.17736 4157 ft 149 kts 90°
2026-04-27 00:41 43.26402 17.18996 3861 ft 144 kts 96°
2026-04-27 00:42 43.26141 17.20310 3705 ft 138 kts 107°
2026-04-27 00:42 43.25808 17.21546 3576 ft 138 kts 109°
2026-04-27 00:42 43.25337 17.22609 3211 ft 139 kts 133°
2026-04-27 00:42 43.24686 17.23618 3038 ft 145 kts 128°
2026-04-27 00:43 43.24068 17.24700 2963 ft 142 kts 124°
2026-04-27 00:43 43.23536 17.25816 2895 ft 137 kts 124°
2026-04-27 00:43 43.22980 17.26901 2771 ft 142 kts 124°
2026-04-27 00:43 43.22477 17.28043 2785 ft 139 kts 121°
2026-04-27 00:44 43.21994 17.29166 2901 ft 132 kts 120°
2026-04-27 00:44 43.21554 17.30267 2957 ft 133 kts 111°
2026-04-27 00:44 43.21211 17.31431 3002 ft 129 kts 112°
2026-04-27 00:44 43.20907 17.32587 3011 ft 128 kts 104°
2026-04-27 00:45 43.20690 17.33792 2918 ft 135 kts 101°
2026-04-27 00:45 43.20465 17.35059 2810 ft 140 kts 104°
2026-04-27 00:45 43.20261 17.36405 2574 ft 150 kts 95°
2026-04-27 00:45 43.20045 17.37827 2394 ft 155 kts 98°
2026-04-27 00:46 43.19857 17.39262 2202 ft 147 kts 96°
2026-04-27 00:46 43.19670 17.40633 2049 ft 141 kts 105°
2026-04-27 00:46 43.19440 17.41944 1852 ft 136 kts 110°
2026-04-27 00:46 43.19231 17.42757 1829 ft 141 kts 108°
2026-04-27 00:47 43.18963 17.44064 1693 ft 145 kts 104°
2026-04-27 00:47 43.18708 17.45391 1518 ft 143 kts 107°
2026-04-27 00:47 43.18440 17.46643 1478 ft 130 kts 103°
2026-04-27 00:47 43.18257 17.47811 1619 ft 122 kts 101°
2026-04-27 00:48 43.18149 17.49004 1579 ft 133 kts 94°
2026-04-27 00:48 43.18123 17.50293 1488 ft 140 kts 89°
2026-04-27 00:48 43.18068 17.51564 1283 ft 128 kts 95°
2026-04-27 00:48 43.18085 17.52818 1159 ft 133 kts 86°
2026-04-27 00:49 43.18155 17.54040 1178 ft 129 kts 84°
2026-04-27 00:49 43.18249 17.55252 1165 ft 128 kts 85°
2026-04-27 00:49 43.18291 17.56446 1276 ft 120 kts 91°
2026-04-27 00:49 43.18293 17.57604 1312 ft 123 kts 90°
2026-04-27 00:50 43.18282 17.58795 1346 ft 126 kts 90°
2026-04-27 00:50 43.18193 17.61157 1634 ft 123 kts 97°
2026-04-27 00:50 43.18125 17.62364 1643 ft 128 kts 94°
2026-04-27 00:51 43.18036 17.63563 1770 ft 124 kts 99°
2026-04-27 00:51 43.17806 17.64704 1899 ft 124 kts 117°
2026-04-27 00:51 43.17340 17.65715 2005 ft 124 kts 130°
2026-04-27 00:51 43.16783 17.66639 1981 ft 131 kts 132°
2026-04-27 00:52 43.16190 17.67575 2112 ft 130 kts 135°
2026-04-27 00:52 43.15618 17.68501 1924 ft 126 kts 124°
2026-04-27 00:52 43.15110 17.69416 1760 ft 116 kts 128°
2026-04-27 00:52 43.14664 17.70266 1726 ft 105 kts 127°
2026-04-27 00:53 43.14272 17.70998 1511 ft 86 kts 131°
2026-04-27 00:53 43.13925 17.71626 1142 ft 79 kts 128°
2026-04-27 00:53 43.13643 17.72146 798 ft 54 kts 107°
2026-04-27 00:53 43.13496 17.72568 409 ft 34 kts 100°
2026-04-27 00:54 43.13462 17.72768 327 ft 17 kts 98°
2026-04-27 00:54 43.13438 17.73008 192 ft 19 kts 102°
2026-04-27 00:54 43.13415 17.73187 456 ft 33 kts 109°
2026-04-27 00:54 43.13325 17.73651 551 ft 67 kts 109°
2026-04-27 00:55 43.13422 17.74392 595 ft 87 kts 72°
2026-04-27 00:55 43.13839 17.75098 579 ft 102 kts 36°
2026-04-27 00:55 43.14363 17.75718 787 ft 103 kts 34°
2026-04-27 00:55 43.14965 17.76338 868 ft 111 kts 32°
2026-04-27 00:56 43.15599 17.76977 973 ft 114 kts 36°
2026-04-27 00:56 43.16229 17.77667 1001 ft 115 kts 35°
2026-04-27 00:56 43.16795 17.78402 1210 ft 113 kts 45°
2026-04-27 00:56 43.17403 17.79138 1251 ft 120 kts 38°
2026-04-27 00:57 43.17994 17.79899 1393 ft 118 kts 44°
2026-04-27 00:57 43.18548 17.80766 1431 ft 123 kts 55°
2026-04-27 00:57 43.19103 17.81666 1484 ft 124 kts 49°
2026-04-27 00:57 43.19664 17.82555 1524 ft 120 kts 51°
2026-04-27 00:58 43.20238 17.83428 1585 ft 129 kts 47°
2026-04-27 00:58 43.20873 17.84289 1664 ft 125 kts 41°
2026-04-27 00:58 43.21461 17.85139 1741 ft 118 kts 40°
2026-04-27 00:58 43.22060 17.85912 1752 ft 116 kts 38°
2026-04-27 00:59 43.22673 17.86611 1833 ft 109 kts 36°
2026-04-27 00:59 43.23222 17.87266 2013 ft 100 kts 39°
2026-04-27 00:59 43.23863 17.87673 2127 ft 106 kts 17°
2026-04-27 00:59 43.24605 17.87975 2136 ft 117 kts 13°
2026-04-27 01:00 43.24653 17.87991 2141 ft 117 kts 13°
2026-04-27 01:00 43.25256 17.88170 2163 ft 117 kts
2026-04-27 01:00 43.26081 17.88244 2135 ft 114 kts
2026-04-27 01:00 43.26832 17.88371 2222 ft 109 kts
2026-04-27 01:01 43.27658 17.87937 1171 ft 136 kts 323°
2026-04-27 01:01 43.28302 17.87047 911 ft 115 kts 312°
2026-04-27 01:01 43.28895 17.86252 762 ft 125 kts 314°
2026-04-27 01:01 43.29555 17.85456 596 ft 132 kts 319°
2026-04-27 01:02 43.30256 17.84703 530 ft 128 kts 319°
2026-04-27 01:02 43.30967 17.83974 520 ft 123 kts 326°
2026-04-27 01:02 43.31686 17.83334 493 ft 122 kts 328°
2026-04-27 01:02 43.32389 17.82683 459 ft 112 kts 315°
2026-04-27 01:03 43.32826 17.82212 422 ft 64 kts 309°
2026-04-27 01:03 43.33107 17.81898 381 ft 44 kts 321°
2026-04-27 01:03 43.33330 17.81710 288 ft 32 kts 330°
2026-04-27 01:03 43.33537 17.81588 273 ft 33 kts 322°
2026-04-27 01:04 43.33816 17.81480 325 ft 57 kts 351°
2026-04-27 01:04 43.34305 17.81671 591 ft 82 kts 38°
2026-04-27 01:04 43.34636 17.82165 972 ft 62 kts 67°
2026-04-27 01:04 43.34691 17.82688 1281 ft 50 kts 76°
2026-04-27 01:05 43.34772 17.83136 1684 ft 54 kts 70°
2026-04-27 01:05 43.34930 17.83748 2034 ft 77 kts 70°
2026-04-27 01:05 43.35116 17.84471 2379 ft 80 kts 81°
2026-04-27 01:05 43.35181 17.85269 2775 ft 83 kts 91°
2026-04-27 01:06 43.35201 17.86104 2889 ft 90 kts 88°
2026-04-27 01:06 43.35317 17.86960 3205 ft 93 kts 82°
2026-04-27 01:06 43.35486 17.87863 3534 ft 102 kts 74°
2026-04-27 01:06 43.35650 17.88810 3890 ft 100 kts 72°
2026-04-27 01:07 43.35845 17.89729 4273 ft 94 kts 70°
2026-04-27 01:07 43.36047 17.90582 4750 ft 97 kts 66°
2026-04-27 01:07 43.36272 17.91506 5052 ft 103 kts 66°
2026-04-27 01:07 43.36503 17.92447 5374 ft 108 kts 67°
2026-04-27 01:08 43.36767 17.93488 5429 ft 119 kts 67°
2026-04-27 01:08 43.37064 17.94562 5471 ft 112 kts 67°
2026-04-27 01:08 43.37375 17.95617 5319 ft 127 kts 59°
2026-04-27 01:08 43.37776 17.96690 5344 ft 125 kts 57°
2026-04-27 01:09 43.38213 17.97720 5339 ft 116 kts 56°
2026-04-27 01:09 43.38496 17.98574 4859 ft 94 kts 70°
2026-04-27 01:09 43.38835 17.99562 4555 ft 84 kts 72°
2026-04-27 01:09 43.39010 18.00434 4586 ft 110 kts 72°
2026-04-27 01:10 43.39285 18.01449 4796 ft 115 kts 67°
2026-04-27 01:10 43.39594 18.02526 4743 ft 121 kts 69°
2026-04-27 01:10 43.39846 18.03578 4560 ft 125 kts 64°
2026-04-27 01:10 43.40168 18.04592 4476 ft 122 kts 56°
2026-04-27 01:11 43.40603 18.05584 4563 ft 120 kts 55°
2026-04-27 01:11 43.41102 18.06522 4640 ft 124 kts 50°
2026-04-27 01:11 43.41669 18.07383 4793 ft 112 kts 49°
2026-04-27 01:11 43.42192 18.08204 4789 ft 113 kts 43°
2026-04-27 01:12 43.42690 18.08982 4954 ft 106 kts 47°
2026-04-27 01:12 43.43203 18.09774 5089 ft 114 kts 45°
2026-04-27 01:12 43.43791 18.10551 5110 ft 127 kts 34°
2026-04-27 01:12 43.44363 18.11147 4953 ft 105 kts 41°
2026-04-27 01:13 43.44908 18.11850 4754 ft 83 kts 50°
2026-04-27 01:13 43.45388 18.12600 4655 ft 115 kts 44°
2026-04-27 01:13 43.46025 18.13308 4523 ft 128 kts 30°
2026-04-27 01:13 43.46779 18.13932 4557 ft 112 kts 29°
2026-04-27 01:14 43.47398 18.14529 4844 ft 111 kts 33°
2026-04-27 01:14 43.48021 18.15087 5122 ft 105 kts 32°
2026-04-27 01:14 43.48673 18.15630 5258 ft 112 kts 28°
2026-04-27 01:14 43.49380 18.16118 5421 ft 115 kts 24°
2026-04-27 01:15 43.50122 18.16558 5553 ft 117 kts 24°
2026-04-27 01:15 43.50866 18.16984 5729 ft 114 kts 21°
2026-04-27 01:15 43.51613 18.17384 5784 ft 120 kts 18°
2026-04-27 01:15 43.52387 18.17832 5735 ft 122 kts 23°
2026-04-27 01:16 43.53174 18.18353 5718 ft 126 kts 23°
2026-04-27 01:16 43.53901 18.18867 5891 ft 114 kts 26°
2026-04-27 01:16 43.54609 18.19332 6053 ft 108 kts 26°
2026-04-27 01:16 43.55310 18.19814 6230 ft 115 kts 24°
2026-04-27 01:17 43.56019 18.20262 6479 ft 108 kts 24°
2026-04-27 01:17 43.56702 18.20700 6671 ft 109 kts 23°
2026-04-27 01:17 43.57415 18.21129 6712 ft 114 kts 22°
2026-04-27 01:17 43.58152 18.21616 6785 ft 119 kts 27°
2026-04-27 01:18 43.58879 18.22188 6718 ft 119 kts 28°
2026-04-27 01:18 43.59585 18.22786 6804 ft 120 kts 31°
2026-04-27 01:18 43.60311 18.23398 6781 ft 122 kts 32°
2026-04-27 01:18 43.61035 18.24069 6761 ft 124 kts 33°
2026-04-27 01:19 43.61760 18.24757 6756 ft 130 kts 31°
2026-04-27 01:19 43.62480 18.25431 6896 ft 116 kts 38°
2026-04-27 01:19 43.63157 18.26103 6930 ft 123 kts 30°
2026-04-27 01:19 43.63925 18.26629 6989 ft 124 kts 22°
2026-04-27 01:20 43.64751 18.27091 6879 ft 130 kts 22°
2026-04-27 01:20 43.65569 18.27654 6788 ft 128 kts 27°
2026-04-27 01:20 43.66358 18.28277 6683 ft 127 kts 30°
2026-04-27 01:20 43.67118 18.28935 6525 ft 130 kts 30°
2026-04-27 01:21 43.67910 18.29552 6341 ft 129 kts 29°
2026-04-27 01:21 43.68473 18.30219 6426 ft 118 kts 41°
2026-04-27 01:21 43.69157 18.30957 6273 ft 132 kts 31°
2026-04-27 01:21 43.69987 18.31570 6044 ft 138 kts 24°
2026-04-27 01:22 43.70817 18.32114 5994 ft 132 kts 23°
2026-04-27 01:22 43.71652 18.32686 5946 ft 132 kts 27°
2026-04-27 01:22 43.72386 18.33290 5964 ft 124 kts 29°
2026-04-27 01:22 43.72997 18.33791 5866 ft 84 kts 37°
2026-04-27 01:23 43.73506 18.34368 5316 ft 90 kts 41°
2026-04-27 01:23 43.74051 18.34906 4845 ft 82 kts 38°
2026-04-27 01:23 43.74694 18.35411 4491 ft 72 kts 43°
2026-04-27 01:23 43.75157 18.35907 3519 ft 110 kts 27°
2026-04-27 01:24 43.75910 18.36270 3431 ft 124 kts 14°
2026-04-27 01:24 43.76694 18.36500 3689 ft 108 kts 12°
2026-04-27 01:24 43.77428 18.36768 4004 ft 109 kts 14°
2026-04-27 01:24 43.78200 18.36774 3051 ft 116 kts 340°
2026-04-27 01:25 43.78980 18.36511 2460 ft 113 kts
2026-04-27 01:25 43.79701 18.36853 2316 ft 111 kts 20°
2026-04-27 01:25 43.80406 18.37303 2258 ft 111 kts 20°
2026-04-27 01:25 43.81091 18.37805 2264 ft 107 kts 20°
2026-04-27 01:26 43.81735 18.38291 2296 ft 106 kts 26°
2026-04-27 01:26 43.82407 18.38771 2411 ft 115 kts 20°
2026-04-27 01:26 43.83143 18.39143 2489 ft 108 kts 17°
2026-04-27 01:26 43.83896 18.39401 2545 ft 111 kts
2026-04-27 01:27 43.84551 18.39519 2551 ft 69 kts 10°
2026-04-27 01:27 43.84989 18.39659 2369 ft 63 kts 11°
2026-04-27 01:27 43.85362 18.39844 2216 ft 50 kts
2026-04-27 01:27 43.85724 18.39992 2160 ft 63 kts 10°
2026-04-27 01:28 43.86025 18.40361 2323 ft 58 kts 51°
2026-04-27 01:28 43.86074 18.40716 2412 ft 59 kts 80°
2026-04-27 01:28 43.85843 18.41256 2401 ft 75 kts 118°
2026-04-27 01:28 43.85525 18.41834 2347 ft 75 kts 103°
2026-04-27 01:29 43.85461 18.42543 2291 ft 76 kts 62°
2026-04-27 01:29 43.85892 18.43185 2209 ft 52 kts 21°
2026-04-27 01:29 43.86136 18.43419 2164 ft 45 kts 18°
2026-04-27 01:29 43.86351 18.43626 2280 ft 35 kts 23°
2026-04-27 01:30 43.86481 18.43775 2360 ft 37 kts 14°
2026-04-27 01:30 43.86719 18.43649 2446 ft 59 kts 293°
2026-04-27 01:30 43.86704 18.43054 2343 ft 19 kts 222°
2026-04-27 01:30 43.86651 18.42986 2204 ft 23 kts 209°
2026-04-27 01:31 43.86452 18.42832 2142 ft 48 kts 210°
2026-04-27 01:31 43.86120 18.42494 2096 ft 69 kts 228°
2026-04-27 01:31 43.85873 18.41925 2048 ft 63 kts 251°
2026-04-27 01:31 43.85883 18.41338 2125 ft 79 kts 301°
2026-04-27 01:32 43.86301 18.40756 2210 ft 89 kts 323°
2026-04-27 01:32 43.86772 18.40189 2411 ft 88 kts 320°
2026-04-27 01:32 43.87161 18.39557 2624 ft 74 kts 306°
2026-04-27 01:32 43.87196 18.38898 2794 ft 69 kts 278°
2026-04-27 01:33 43.87210 18.38170 2696 ft 92 kts 265°
2026-04-27 01:33 43.86961 18.37303 2600 ft 89 kts 248°
2026-04-27 01:33 43.86815 18.36632 2915 ft 58 kts 270°
2026-04-27 01:33 43.86756 18.36013 2909 ft 73 kts 253°
2026-04-27 01:34 43.86490 18.35417 2518 ft 74 kts 220°
2026-04-27 01:34 43.86149 18.35118 2475 ft 48 kts 196°
2026-04-27 01:34 43.85897 18.34976 2521 ft 25 kts 194°
2026-04-27 01:34 43.85648 18.34840 2350 ft 73 kts 189°
2026-04-27 01:35 43.85144 18.34625 2130 ft 69 kts 206°
2026-04-27 01:35 43.84975 18.34242 1919 ft 52 kts 266°
2026-04-27 01:35 43.84987 18.33685 1892 ft 55 kts 282°
2026-04-27 01:35 43.85163 18.33211 1943 ft 56 kts 304°
2026-04-27 01:36 43.85424 18.32773 1963 ft 62 kts 300°
2026-04-27 01:36 43.85607 18.32373 1976 ft 27 kts 263°
2026-04-27 01:36 43.85656 18.32202 1822 ft 29 kts 271°
2026-04-27 01:36 43.85657 18.31796 1728 ft 64 kts 257°
2026-04-27 01:37 43.85360 18.31329 1829 ft 71 kts 213°
2026-04-27 01:37 43.84884 18.31136 1952 ft 72 kts 192°
2026-04-27 01:37 43.84359 18.31187 1983 ft 83 kts 172°
2026-04-27 01:37 43.83775 18.31208 2042 ft 90 kts 182°
2026-04-27 01:38 43.83120 18.31164 2045 ft 98 kts 180°
2026-04-27 01:38 43.82471 18.31452 2095 ft 102 kts 134°
2026-04-27 01:38 43.81997 18.32125 2165 ft 100 kts 124°
2026-04-27 01:38 43.81572 18.32944 2105 ft 107 kts 115°
2026-04-27 01:39 43.81203 18.33745 2160 ft 90 kts 110°
2026-04-27 01:39 43.81108 18.34473 2241 ft 78 kts 44°
2026-04-27 01:39 43.81604 18.34821 2007 ft 81 kts 339°
2026-04-27 01:39 43.81977 18.34445 1816 ft 51 kts 300°
2026-04-27 01:40 43.82092 18.34128 1707 ft 18 kts 297°
2026-04-27 01:40 43.82137 18.33998 1703 ft 16 kts 301°
2026-04-27 01:40 43.82185 18.33867 1696 ft 11 kts 302°
2026-04-27 01:40 43.82237 18.33754 1693 ft 16 kts 311°
2026-04-27 01:41 43.82304 18.33693 1690 ft 10 kts 316°
2026-04-27 01:41 43.82356 18.33669 1695 ft 9 kts 329°
2026-04-27 01:41 43.82425 18.33641 1691 ft 13 kts 332°
2026-04-27 01:41 43.82492 18.33551 1696 ft 16 kts 308°
2026-04-27 01:42 43.82575 18.33445 1692 ft 11 kts 261°
2026-04-27 01:42 43.82600 18.33404 1679 ft 1 kts 213°
2026-04-27 01:42 43.82602 18.33402 1669 ft 0 kts 209°